Fence Lake Weather Center

Moon Phase Calendar



Fence Lake Water Level
Online Cameras

 


      

Current Conditions in Marinette
9/27/2021 10:41:23 AM

64°F
Feels Like 63
Clouds
Humidity
72%
Pressure
29.83"
Wind
8.9 mph (NNE)
Dew Point
54°F
UV Index
3/10 (Moderate)
Visibility
6 mi

Hourly Forecast

Date & Time Mon, Sep 27
10:00 AM
Mon, Sep 27
11:00 AM
Mon, Sep 27
12:00 PM
Mon, Sep 27
1:00 PM
Mon, Sep 27
2:00 PM
Mon, Sep 27
3:00 PM
Mon, Sep 27
4:00 PM
Mon, Sep 27
5:00 PM
Mon, Sep 27
6:00 PM
Mon, Sep 27
7:00 PM
Mon, Sep 27
8:00 PM
Mon, Sep 27
9:00 PM
Mon, Sep 27
10:00 PM
Mon, Sep 27
11:00 PM
Tue, Sep 28
12:00 AM
Tue, Sep 28
1:00 AM
Tue, Sep 28
2:00 AM
Tue, Sep 28
3:00 AM
Tue, Sep 28
4:00 AM
Tue, Sep 28
5:00 AM
Tue, Sep 28
6:00 AM
Tue, Sep 28
7:00 AM
Tue, Sep 28
8:00 AM
Tue, Sep 28
9:00 AM
Tue, Sep 28
10:00 AM
Tue, Sep 28
11:00 AM
Tue, Sep 28
12:00 PM
Tue, Sep 28
1:00 PM
Tue, Sep 28
2:00 PM
Tue, Sep 28
3:00 PM
Tue, Sep 28
4:00 PM
Tue, Sep 28
5:00 PM
Tue, Sep 28
6:00 PM
Tue, Sep 28
7:00 PM
Tue, Sep 28
8:00 PM
Tue, Sep 28
9:00 PM
Tue, Sep 28
10:00 PM
Tue, Sep 28
11:00 PM
Wed, Sep 29
12:00 AM
Wed, Sep 29
1:00 AM
Wed, Sep 29
2:00 AM
Wed, Sep 29
3:00 AM
Wed, Sep 29
4:00 AM
Wed, Sep 29
5:00 AM
Wed, Sep 29
6:00 AM
Wed, Sep 29
7:00 AM
Wed, Sep 29
8:00 AM
Wed, Sep 29
9:00 AM
Condition
Clouds

Clouds

Clouds

Clouds

Clouds

Clouds

Clouds

Clouds

Clouds

Clouds

Clear

Clear

Clear

Clear

Clear

Clear

Clear

Clear

Clear

Clear

Clear

Clear

Clear

Clear

Clear

Clear

Clear

Clear

Clear

Clear

Clear

Clear

Clear

Clear

Clear

Clear

Clear

Clear

Clear

Clear

Clear

Clear

Clear

Clear

Clear

Clear

Clear

Clear
Temperature 63°F64°F64°F66°F67°F68°F69°F67°F62°F57°F53°F50°F48°F46°F45°F45°F44°F43°F43°F43°F42°F42°F47°F53°F58°F61°F65°F67°F69°F70°F70°F69°F63°F57°F54°F53°F53°F52°F52°F51°F51°F51°F50°F50°F50°F50°F54°F60°F
Feels Like 63°F63°F64°F65°F66°F67°F68°F66°F61°F55°F51°F48°F46°F44°F44°F42°F42°F41°F41°F41°F41°F42°F47°F50°F55°F59°F63°F65°F67°F68°F69°F67°F61°F55°F53°F52°F51°F51°F51°F50°F50°F50°F49°F49°F50°F50°F53°F59°F
Cloudiness 95%95%95%95%98%99%90%77%79%68%0%0%0%1%6%5%0%0%0%0%0%0%0%0%0%0%1%0%0%0%1%2%3%4%4%2%1%1%1%1%0%0%0%0%0%1%5%5%
Visibility 6 mi6 mi6 mi6 mi6 mi6 mi6 mi6 mi6 mi6 mi6 mi6 mi6 mi6 mi6 mi6 mi6 mi6 mi6 mi6 mi6 mi6 mi6 mi6 mi6 mi6 mi6 mi6 mi6 mi6 mi6 mi6 mi6 mi6 mi6 mi6 mi6 mi6 mi6 mi6 mi6 mi6 mi6 mi6 mi6 mi6 mi6 mi6 mi
Precipitation 0%0%0%0%0%0%0%0%0%0%0%0%0%0%0%0%0%0%0%0%0%0%0%0%0%0%0%0%0%0%0%0%0%0%0%0%0%0%0%0%0%0%0%0%0%0%0%0%
Humidity 69%72%67%61%55%49%44%48%58%68%74%80%86%89%90%90%90%90%89%88%87%86%75%60%50%41%36%33%31%31%32%40%53%64%71%74%77%79%82%84%86%87%88%88%88%87%77%63%
Dew Point 53°F54°F53°F52°F50°F48°F46°F47°F47°F46°F45°F44°F44°F43°F43°F42°F41°F40°F40°F39°F39°F38°F39°F39°F39°F38°F37°F37°F38°F38°F39°F43°F45°F44°F45°F45°F45°F46°F46°F46°F47°F47°F47°F46°F46°F46°F47°F47°F
Pressure 29.83"29.83"29.83"29.83"29.83"29.85"29.85"29.85"29.88"29.91"29.94"29.97"30"30"30"30"30"30.03"30.03"30.03"30.06"30.06"30.06"30.06"30.06"30.03"30.03"30"29.97"29.97"29.94"29.94"29.97"29.97"30"30"30"30"30"30"30"30.03"30.03"30.03"30.06"30.06"30.06"30.09"
Wind Speed 9.3 mph8.9 mph8.3 mph7.5 mph7 mph7.4 mph7.2 mph7.1 mph6.8 mph6.3 mph6.1 mph5.3 mph4.6 mph4.4 mph4 mph4.2 mph4.1 mph3.7 mph3.7 mph3.6 mph3.2 mph3 mph1.6 mph1.7 mph2.7 mph4 mph4.6 mph4.8 mph4.8 mph4.9 mph4.9 mph4.3 mph4.6 mph5.7 mph5.2 mph4.6 mph4.3 mph3.8 mph2.8 mph2.6 mph2.9 mph3 mph3.2 mph2.2 mph1.3 mph1.7 mph1.2 mph0.8 mph
Wind
Direction
29°
NNE
30°
NNE
31°
NNE
31°
NNE
29°
NNE
25°
NNE
30°
NNE
37°
NE
53°
NE
54°
NE
45°
NE
39°
NE
33°
NNE
29°
NNE
21°
NNE
20°
NNE
19°
NNE
12°
NNE
17°
NNE
15°
NNE
18°
NNE
25°
NNE
39°
NE
93°
E
143°
SE
155°
SSE
164°
SSE
177°
S
181°
S
183°
S
186°
S
178°
S
160°
SSE
154°
SSE
169°
S
184°
S
211°
SSW
215°
SW
203°
SSW
198°
SSW
217°
SW
239°
WSW
244°
WSW
250°
WSW
250°
WSW
276°
W
290°
WNW
228°
SW

Daily Forecast

Date High Low Precip. Humidity
Today
Sep 27

Clouds
69 °F
46 °F
0%
67%
Tuesday
Sep 28

Clear
70 °F
42 °F
0%
36%
Wednesday
Sep 29

Clear
76 °F
50 °F
0%
38%
Thursday
Sep 30

Clouds
70 °F
52 °F
0%
51%
Friday
Oct 1

Clouds
70 °F
52 °F
0%
60%
Saturday
Oct 2

Clouds
70 °F
51 °F
0%
49%
Sunday
Oct 3

Clouds
69 °F
54 °F
0%
45%
Monday
Oct 4

Clouds
66 °F
51 °F
6%
45%
Tuesday
Oct 5

Clouds
63 °F
45 °F
0%
40%
Wednesday
Oct 6

Clear
66 °F
43 °F
0%
40%
Thursday
Oct 7

Rain
66 °F
46 °F
42%
36%
Friday
Oct 8

Rain
60 °F
55 °F
100%
94%
Saturday
Oct 9

Rain
63 °F
54 °F
26%
67%
Sunday
Oct 10

Rain
55 °F
53 °F
99%
97%
Monday
Oct 11

Rain
59 °F
52 °F
99%
89%
Tuesday
Oct 12

Rain
68 °F
51 °F
87%
82%

Temperature 8-14 Day Outlook



Precipitation 8-14 Day Outlook




Quick Links
Fence Lake News
Fence Lake Photos
Fence Lake Videos




About Us
Contact Us
Site Map
Search Site
Advertise With Us
   
Fence.USLakes.info
THE FENCE LAKE WEBSITE

Copyright 2021, Lakes Online
Privacy    |    Legal